This is the latest recevied weather packets stored in our database for station/object K4ZZR. If no packets are shown the sender has not sent any weather packets the latest 10 day(s).
| Time | Temp. | Humidity | Pressure | Rain* | Wind** | Luminosity | Snow |
|---|---|---|---|---|---|---|---|
| 1777654660 | 30° C | 59% | 1011.9 hPa | 0 mm | - | 1072 W/m² | - |
| 1777654358 | 29.44° C | 61% | 1012.1 hPa | 0 mm | - | 231 W/m² | - |
| 1777654056 | 30° C | 61% | 1012 hPa | 0 mm | - | 1066 W/m² | - |
| 1777653752 | 30° C | 60% | 1012 hPa | 0 mm | - | 1030 W/m² | - |
| 1777653448 | 30° C | 59% | 1011.9 hPa | 0 mm | - | 1050 W/m² | - |
| 1777653146 | 29.44° C | 63% | 1012.3 hPa | 0 mm | - | 1038 W/m² | - |
| 1777652842 | 29.44° C | 63% | 1012.2 hPa | 0 mm | - | 1049 W/m² | - |
| 1777652538 | 30° C | 61% | 1012.4 hPa | 0 mm | - | 915 W/m² | - |
| 1777652236 | 29.44° C | 65% | 1012.4 hPa | 0 mm | - | 1038 W/m² | - |
| 1777651933 | 29.44° C | 64% | 1012.6 hPa | 0 mm | - | 254 W/m² | - |
| 1777651629 | 28.89° C | 67% | 1012.6 hPa | 0 mm | - | 336 W/m² | - |
| 1777651326 | 27.78° C | 67% | 1012.4 hPa | 0 mm | - | 361 W/m² | - |
| 1777651023 | 28.33° C | 66% | 1012.5 hPa | 0 mm | - | 178 W/m² | - |
| 1777650720 | 28.89° C | 68% | 1012.2 hPa | 0 mm | - | 607 W/m² | - |
| 1777650417 | 28.33° C | 68% | 1012.4 hPa | 0 mm | - | 949 W/m² | - |
| 1777650114 | 28.33° C | 68% | 1012.2 hPa | 0 mm | - | 616 W/m² | - |
| 1777649812 | 28.33° C | 68% | 1012.7 hPa | 0 mm | - | 652 W/m² | - |
| 1777649509 | 27.22° C | 70% | 1012.8 hPa | 0 mm | - | 923 W/m² | - |
| 1777649205 | 27.78° C | 72% | 1012.6 hPa | 0 mm | - | 435 W/m² | - |
| 1777648902 | 27.78° C | 69% | 1012.6 hPa | 0 mm | - | 373 W/m² | - |
| 1777648599 | 27.78° C | 70% | 1012.6 hPa | 0 mm | - | 281 W/m² | - |
| 1777648296 | 28.33° C | 72% | 1012.6 hPa | 0 mm | - | 190 W/m² | - |
| 1777647992 | 28.33° C | 71% | 1012.6 hPa | 0 mm | - | 933 W/m² | - |
| 1777647688 | 28.33° C | 72% | 1012.4 hPa | 0 mm | - | 905 W/m² | - |
| 1777647384 | 27.22° C | 76% | 1012.6 hPa | 0 mm | - | 893 W/m² | - |
* Rain latest hour (hover to see other rain measurements)
** Current wind speed in m/s (hover to see current wind gust speed)